ARIANE 5 R/B, 44477

Orbit data source: Space-Track

ARIANE 5 R/B, 44477 is space debris in HEO originally from a launch on Tue, 06 Aug 2019 UTC launched from the French Guiana (FRGUI). Debris objects in space refer to the collection of defunct objects orbiting the Earth. Examples of debris include non-operational satellites, rocket bodies, and fragments generated from explosions, collisions, or faulty payload assembly.

Loading next visibility...
ARIANE 5 R/B details
Identifier
44477, 2019-049C
Orbit
HEO
Last TLE update14 hours ago
Origin
Flag of FRArianespace (FR)
ManufacturerArianeGroup
MissionSpacecraft
Bus & MotorESC-A, Unknown motor
Mass~5,000 kg wet, ~5,000 kg dry
Launch date (UTC)
2019-08-06 (5 years ago)
Launch vehicleUnknown
Launch site
French Guiana (FRGUI)
Object type
Payload
Rocket body
Debris
Shape & HBRCyl + 1 Nozzle, 7 m
Radar Cross Section41.627 m², Large (>1 m²)

Expand to show TLE details & history

TLE from 14 hours ago
0 ARIANE 5 R/B
1 44477U 19049C   24336.72983240  .00058168  73046-6  18236-2 0  9998
2 44477   4.3619 237.5866 6868822 205.2987  93.2025  2.86443881 49010
Epoch: 2024-12-01T17:30Z
Definitive object data (Epoch: 2024-12-01T17:30:57.519Z)
Latitude0.00007°
Longitude-96.00897°
Altitude22,899.365 km
Speed2.863 km/s
True Right ascension15h 51m 10s
True Declination0° 00' 00"
Sunlit
Object was in daylight at TLE epoch
Visualization TLE readout
Latitude4.19371°
Longitude11.0122°
Altitude5,892.559 km
Speed6.777 km/s
Apparent Right ascension21h 35m 25s
Apparent Declination-13° 07' 19"
Sunlit
Object is in daylight
Visualization observer readout
Local Sidereal Time05:22:06
Azimuth276.969° WNW
Elevation-28.748°
Doppler factor1
Orbital elements
Apogee altitude28,959.685 km
Perigee altitude181.243 km
Semi-major axis20,948.601 km
Eccentricity0.6868822
Inclination4.3619°
RAAN237.5866°
Arg. of periapsis205.2987°
True anomaly154.88233°
Mean anomaly93.2025°
Eccentric anomaly125.31572°
Mean motion0.71583 °/min
BSTAR0.0018236
Orbital period502.91 mins
Loading maneuver chart data...
Loading historical data...
Loading historical data...
Loading historical data...
Loading historical data...
Loading historical data...
Loading historical data...
Loading historical data...
Other satellites on launch #49 in the year 2019 (2019-08-06 UTC)

ARIANE 5 R/B Visibility forecast

Observer location: undefined°, undefined

Span
Click to sort rows by Start time (UTC) header in descending order
Start Az.
Max El. time (UTC)
Max El. Az.
Max El.
End time (UTC)
End Az.
443 mins2024-12-02 17:05:00.986Z222.951° SW2024-12-02 20:19:00.986Z199.295° SSW34.047°2024-12-03 00:28:00.986Z143.741° SSE
|